Retour au catalogue

STARLINK-5508

ActifCommunicationsVLEO
NORAD 55639·PAYLOAD·🇺🇸 United States

Lancé Feb 17, 2023 depuis Vandenberg Space Force Base

Loading…

Prochains Passages (prochaines 24 heures)

TLE

FraisSource: CelesTrak SupGP

Époque: Sep 14, 2026, 21:25 UTC

1 55639C 23021M   26257.89284722  .00037906  00000+0  31770-2 0  2571
2 55639  70.0013  67.3946 0002741 268.7000  51.8302 14.98309318    19

Suivez STARLINK-5508 en temps réel avec AllMySat

Download on the App Store